VHHHZSSS

Guest
Details From VHHH - Hong Kong Intl
To ZSSS - HONGQIAO INTL
Flight Number -
Tags decoded
Created
Modified
Stats Distance 722 nm / 1,337 km
Max Altitude 0 ft / 0 m
Waypoints 3
Social Downloads 0
Likes 0
Share VATSIM

Download

Looking for another format? Having issues loading an existing format? Contact us
Advertisement - Login to hide

Notes

Requested: VHHH OCEAN ZSSS

Route

VHHH OCEAN ZSSS

ID Type Via Altitude Latitude Longitude Leg Dist Tot Dist Heading (true) Name
O VHHH APT - 0 ft / 0 m 22.30899˚ 113.91461˚ - 0 nm - Hong Kong Intl
OCEAN FIX - 0 ft / 0 m 21.81194˚ 114.81333˚ 58 nm 58 nm 121° / 121° -
O ZSSS APT - 0 ft / 0 m 31.19787˚ 121.33632˚ 663 nm 721 nm 30° / 33° HONGQIAO INTL

Altitude Profile

Advertisement - Login to hide

Weather


0- 5 10 15 20 25 30 35+ Temperature / ° C

Clouds and Precipitation
Forecast for 2018-05-23 18:00 UTC. Updated 4 hours ago

Ground ~20,000 ft ~40,000 ft Winds

VHHH

Details ICAO VHHH (HKG)
Name Hong Kong Intl
Region Hong Kong
Timezone Unknown (UTC+0.0)
Stats Elevation 28 ft / 9 m (AMSL)
Location 22.308995° 113.914610°
Runways 2
Magnetic Variation 2.850° W

METAR

VHHH 232130Z VRB02KT 9999 FEW020 28/24 Q1009 NOSIG

Decode

TAF

TAF VHHH 231700Z 2318/2424 19010KT 9999 FEW025 TX34/2406Z TN28/2321Z TN28/2421Z TEMPO 2318/2321 VRB05KT TEMPO 2321/2403 09010KT TEMPO 2403/2410 25010KT

Decode

Departure Runways

ID Width Length Bearing (true) Bearing (mag) Surface Threshold Offset Overrun Length
07L 197 ft / 60 m 12,457 ft / 3,797 m 70.79° 73.64° Asphalt 564 ft / 172 m 866 ft / 264 m
07R 197 ft / 60 m 12,458 ft / 3,797 m 70.79° 73.64° Asphalt 525 ft / 160 m 886 ft / 270 m
25L 197 ft / 60 m 12,458 ft / 3,797 m 250.80° 253.65° Asphalt 0 ft / 0 m 840 ft / 256 m
25R 197 ft / 60 m 12,457 ft / 3,797 m 250.80° 253.65° Asphalt 581 ft / 177 m 860 ft / 262 m

ZSSS

Details ICAO ZSSS (SHA)
Name HONGQIAO INTL
Region China
Timezone Asia/Shanghai (UTC+8.0)
Stats Elevation 10 ft / 3 m (AMSL)
Location 31.197875° 121.336319°
Runways 1
Magnetic Variation 5.951° W

METAR

ZSSS 232130Z 14002MPS 120V180 CAVOK 18/14 Q1012 NOSIG

Decode

TAF

Not found

Destination Runways

ID Width Length Bearing (true) Bearing (mag) Surface Threshold Offset Overrun Length
18 190 ft / 58 m 11,234 ft / 3,424 m 177.21° 183.16° Asphalt 657 ft / 200 m 520 ft / 159 m
36 190 ft / 58 m 11,234 ft / 3,424 m 357.21° 3.16° Asphalt 657 ft / 200 m 520 ft / 159 m

Approach Navaids

Runway Type Ident Frequency Range Bearing (true) Bearing (mag) Slope Elevation
18 Localiser IPK 109.10 MHz 18 nm / 33 km 177.03° 182.98° - 10 ft / 3 m (AMSL)
18 Glidescope IPK 109.10 MHz 10 nm / 19 km 177.21° 183.16° 3.00° 8 ft / 2 m (AMSL)
36 Localiser IWB 110.30 MHz 18 nm / 33 km 356.95° 2.90° - 8 ft / 2 m (AMSL)
36 Glidescope IWB 110.30 MHz 10 nm / 19 km 357.21° 3.16° 3.00° 10 ft / 3 m (AMSL)

Popular Alternatives